Regional Weather Roundup
Issued by NWS Nashville, TN

Home | Current Version | Previous Version | Text Only | Print | Product List | Glossary On
Versions: 1 2 3 4 5 6 7 8 9 10 11 12 13 14 15 16 17 18 19 20 21 22 23 24 25 26 27
000
ASUS44 KOHX 051410
RWROHX
MIDDLE TENNESSEE HOURLY WEATHER ROUNDUP
NATIONAL WEATHER SERVICE NASHVILLE TN
800 AM CST MON DEC 05 2016

NOTE: "FAIR" INDICATES FEW OR NO CLOUDS BELOW 12,000 FEET WITH
NO SIGNIFICANT WEATHER AND/OR OBSTRUCTIONS TO VISIBILITY.

* THESE REPORTS ARE NOT UNDER NWS QUALITY CONTROL AND MAY NOT
  REPORT WEATHER SUCH AS PRECIPITATION AND FOG.


TNZ005>011-023>034-057-059-062>066-078-080-051500
...NORTHERN MIDDLE TENNESSEE...

CITY           SKY/WX    TMP DP  RH WIND       PRES   REMARKS
CLARKSVILLE    CLOUDY    39  34  82 E10       30.07S WCI  32
CROSSVILLE     CLOUDY    43  42  97 NE5       30.02S
LEBANON        CLOUDY    41  40  96 N6        30.04S
NASHVILLE      CLOUDY    42  39  89 N8        30.07R FOG
PORTLAND       CLOUDY    39  37  93 NE5       30.06F
SMYRNA         CLOUDY    43  41  93 N9        30.07R
SPRINGFIELD    CLOUDY    39  37  93 VRB3      30.06S
WEST NASHVILLE CLOUDY    39  37  93 NE6       30.07R WCI  35
$$
TNZ056-058-060-061-075>077-079-093>097-051500
...SOUTHERN MIDDLE TENNESSEE...

CITY           SKY/WX    TMP DP  RH WIND       PRES   REMARKS
COLUMBIA       CLOUDY   N/A N/A N/A NE6       30.02R
FAYETTEVILLE   CLOUDY    45  45 100 N6        30.03R FOG
MCMINNVILLE    PTSUNNY   45  45 100 NE8       30.03R
MURFREESBORO   CLOUDY    44  43  97 N7        30.05
SHELBYVILLE    CLOUDY    46  45  93 N7        30.04S
TULLAHOMA      CLOUDY    45  43  93 NE6       30.02R
WINCHESTER     CLOUDY    45  45 100 NE5       30.03R
$$


...KEY TO REMARKS...
VSB - VISIBILITY IN MILES
WCI - WIND CHILL INDEX
HX  - HEAT INDEX





USA.gov is the U.S. government's official web portal to all federal, state and local government web resources and services.